Tracking 20942 objects as of 15-Jul-2020
HD Live streaming from Space Station
objects crossing your sky now

ARIANE 2 DEB

Track ARIANE 2 DEB now!


NORAD ID: 26717
Int'l Code: 1989-006C
Perigee: 628.5 km
Apogee: 35,653.9 km
Inclination: 8.0 °
Period: 636.6 minutes
Semi major axis: 24512 km
RCS: 4.1288 m2 (large)
Launch date: January 27, 1989
Source: France (FR)
Launch site: FRENCH GUIANA (FRGUI)

Note: This is SATELLITE DEBRIS
aabbcc
Your satellite tracking list
Your tracking list is empty




NASA's NSSDC Master Catalog

Two Line Element Set (TLE):
1 26717U 89006C   20196.56595734 -.00000052  00000-0 -98474-3 0  9992
2 26717   7.9738 251.6928 7144475 122.7233   6.1299  2.26218771161465
Source of the keplerian elements: AFSPC